SCP
0 0 0 0 0 0 0 0 0 0 0 0 0 0 0 0 0 0 0 0 0 0 0 0 0 0 0 0 0 0 0 0 0 0 0 0 0 0 0 0 0 0 0 0
0 0 0 0 0 0 0 0 0 0 0 0 0 0 0 0 0 0 0 0 0 0 0 0 0 0 0 0 0 0 0 0 0 0 0 0 0 0 0 0 0 0 0 0
0 0 0 0 0 0 0 0 0 0 0 0 0 0 0 0 0 0 0 0 0 0 0 0 0 0 0 0 0 0 0 0 0 0 0 0 0 0 0 0 0 0 0 0
0 0 0 0 0 0 0 0 0 0 0 0 0 0 0 0 0 0 0 0 0 0 0 0 0 0 0 0 0 0 0 0 0 0 0 0 0 0 0 0 0 0 0 0
0 0 0 0 0 0 0 0 0 0 0 0 0 0 0 0 0 0 0 0 0 0 0 0 0 0 0 0 0 0 0 0 0 0 0 0 0 0 0 0 0 0 0 0
0 0 0 0 0 0 0 0 0 0 0 0 0 0 0 0 0 0 0 0 0 0 0 0 0 0 0 0 0 0 0 0 0 0 0 0 0 0 0 0 0 0 0 0
0 0 0 0 0 0 0 0 0 0 0 0 0 0 0 0 0 0 0 0 0 0 0 0 0 0 0 0 0 0 0 0 0 0 0 0 0 0 0 0 0 0 0 0
0 0 0 0 0 0 0 0 0 0 0 0 0 0 0 0 0 0 0 0 0 0 0 0 0 0 0 0 0 0 0 0 0 0 0 0 0 0 0 0 0 0 0 0
0 0 0 0 0 0 0 0 0 0 0 0 0 0 0 0 0 0 0 0 0 0 0 0 0 0 0 0 0 0 0 0 0 0 0 0 0 0 0 0 0 0 0 0
0 0 0 0 0 0 0 0 0 0 0 0 0 0 0 0 0 0 0 0 0 0 0 0 0 0 0 0 0 0 0 0 0 0 0 0 0 0 0 0 0 0 0 0
0 0 0 0 0 0 0 0 0 0 0 0 0 0 0 0 0 0 0 0 0 0 0 0 0 0 0 0 0 0 0 0 0 0 0 0 0 0 0 0 0 0 0 0
0 0 0 0 0 0 0 0 0 0 0 0 0 0 0 0 0 0 0 0 0 0 0 0 0 0 0 0 0 0 0 0 0 0 0 0 0 0 0 0 0 0 0 0
0 0 0 0 0 0 0 0 0 0 0 0 0 0 0 0 0 0 0 0 0 0 0 0 0 0 0 0 0 0 0 0 0 0 0 0 0 0 0 0 0 0 0 0
0 0 0 0 0 0 0 0 0 0 0 0 0 0 0 0 0 0 0 0 0 0 0 0 0 0 0 0 0 0 0 0 0 0 0 0 0 0 0 0 0 0 0 0
0 0 0 0 0 0 0 0 0 0 0 0 0 0 0 0 0 0 0 0 0 0 0 0 0 0 0 0 0 0 0 0 0 0 0 0 0 0 0 0 0 0 0 0
0 0 0 0 0 0 0 0 0 0 0 0 0 0 0 0 0 0 0 0 0 0 0 0 0 0 0 0 0 0 0 0 0 0 0 0 0 0 0 0 0 0 0 0
0 0 0 0 0 0 0 0 0 0 0 0 0 0 0 0 0 0 0 0 0 0 0 0 0 0 0 0 0 0 0 0 0 0 0 0 0 0 0 0 0 0 0 0
0 0 0 0 0 0 0 0 0 0 0 0 0 0 0 0 0 0 0 0 0 0 0 0 0 0 0 0 0 0 0 0 0 0 0 0 0 0 0 0 0 0 0 0
0 0 0 0 0 0 0 0 0 0 0 0 0 0 0 0 0 0 0 0 0 0 0 0 0 0 0 0 0 0 0 0 0 0 0 0 0 0 0 0 0 0 0 0
0 0 0 0 0 0 0 0 0 0 0 0 0 0 0 0 0 0 0 0 0 0 0 0 0 0 0 0 0 0 0 0 0 0 0 0 0 0 0 0 0 0 0 0
0 0 0 0 0 0 0 0 0 0 0 0 0 0 0 0 0 0 0 0 0 0 0 0 0 0 0 0 0 0 0 0 0 0 0 0 0 0 0 0 0 0 0 0
0 0 0 0 0 0 0 0 0 0 0 0 0 0 0 0 0 0 0 0 0 0 0 0 0 0 0 0 0 0 0 0 0 0 0 0 0 0 0 0 0 0 0 0
0 0 0 0 0 0 0 0 0 0 0 0 0 0 0 0 0 0 0 0 0 0 0 0 0 0 0 0 0 0 0 0 0 0 0 0 0 0 0 0 0 0 0 0
0 0 0 0 0 0 0 0 0 0 0 0 0 0 0 0 0 0 0 0 0 0 0 0 0 0 0 0 0 0 0 0 0 0 0 0 0 0 0 0 0 0 0 0
0 0 0 0 0 0 0 0 0 0 0 0 0 0 0 0 0 0 0 0 0 0 0 0 0 0 0 0 0 0 0 0 0 0 0 0 0 0 0 0 0 0 0 0
0 0 0 0 0 0 0 0 0 0 0 0 0 0 0 0 0 0 0 0 0 0 0 0 0 0 0 0 0 0 0 0 0 0 0 0 0 0 0 0 0 0 0 0
0 0 0 0 0 0 0 0 0 0 0 0 0 0 0 0 0 0 0 0 0 0 0 0 0 0 0 0 0 0 0 0 0 0 0 0 0 0 0 0 0 0 0 0
Wind_Speed
8 6 4 7 9 9 11 11 10 11 11 12 8 6 4 3 2 2 3 4 4 4 3 2 1 1 1 0 0 0 0 0 1 1 1 2 2 2 2 1 1 1 1 1
6 6 5 9 12 12 13 12 13 13 15 10 5 2 2 3 3 4 5 5 4 3 3 3 3 2 1 1 1 0 1 1 1 1 1 1 2 2 2 2 1 1 1 1
6 3 3 11 13 12 10 8 10 14 13 5 3 4 5 5 5 5 5 5 4 4 4 3 3 3 3 2 1 1 1 1 1 1 1 1 2 2 2 2 2 1 2 2
2 0 10 11 4 9 10 10 10 8 6 5 6 4 4 4 5 5 5 5 5 4 4 3 2 2 1 1 1 1 1 1 1 1 2 2 2 2 2 2 2 2 2 2
3 5 11 9 4 6 7 9 7 8 6 4 2 0 3 2 3 5 5 5 4 4 3 3 3 2 2 1 1 1 1 2 2 1 2 2 2 2 2 2 2 2 2 2
5 6 10 8 3 2 3 7 5 6 6 4 1 2 5 2 2 3 2 2 2 2 2 3 2 2 2 2 1 2 2 2 2 2 2 2 2 3 2 2 2 2 2 2
8 8 11 6 2 3 5 8 2 5 6 4 5 6 4 2 2 2 1 1 2 3 3 3 3 2 2 2 3 2 2 2 2 2 2 2 2 2 2 2 2 2 2 2
7 8 12 3 5 7 7 1 1 3 4 5 6 5 3 2 2 1 1 1 2 2 2 1 2 3 3 3 2 1 1 2 2 2 2 2 2 2 2 2 2 2 2 3
10 9 3 5 5 5 2 3 3 3 4 4 5 5 3 2 2 2 2 2 2 2 2 1 2 3 4 3 1 1 2 2 2 2 2 2 2 2 2 2 2 2 2 2
5 7 5 4 4 3 3 4 4 3 3 3 4 4 3 3 2 1 1 2 2 2 2 3 2 3 3 2 1 2 3 3 3 2 2 2 2 2 2 2 2 3 3 3
6 6 3 4 5 5 4 3 3 2 2 3 4 3 3 3 2 2 2 1 2 3 4 4 3 3 3 2 2 3 3 3 3 3 3 3 2 3 3 3 4 4 4 3
9 6 6 6 5 4 4 4 4 3 2 2 3 3 3 3 3 2 2 2 2 3 3 4 3 4 3 3 3 3 4 3 3 3 3 3 3 3 5 6 7 8 8 6
6 3 5 4 2 2 4 4 3 3 3 2 2 2 2 2 2 1 2 2 3 3 4 3 4 4 4 3 4 4 5 4 3 3 3 3 3 3 4 5 6 7 8 8
2 1 3 3 3 2 2 2 1 1 1 1 1 1 1 1 1 2 3 3 3 3 3 4 4 5 4 3 4 5 5 5 4 4 4 4 4 4 4 4 4 4 6 7
2 2 3 2 1 0 1 1 1 1 1 0 1 1 1 2 2 3 2 2 2 2 3 3 5 5 3 3 4 5 5 4 4 3 4 4 3 3 3 4 4 4 3 4
4 1 0 1 2 1 1 1 2 2 2 1 1 2 2 2 2 2 2 2 2 4 4 4 6 5 3 3 4 4 4 5 4 3 3 3 3 3 3 4 4 4 4 4
1 2 2 3 3 3 2 2 3 3 2 2 2 1 1 1 1 2 2 2 3 4 5 5 6 5 3 4 4 3 3 3 4 3 3 3 3 4 4 4 4 4 4 4
4 4 3 4 4 4 3 2 2 2 3 2 1 1 1 2 3 4 4 3 3 4 4 4 5 4 3 4 3 3 3 3 3 3 3 4 4 4 4 4 5 5 4 3
2 2 2 2 2 2 2 2 2 2 2 1 2 2 2 3 3 3 3 2 3 5 5 4 5 3 3 4 3 3 3 3 3 3 3 4 4 4 4 4 4 4 4 3
2 2 1 1 0 1 2 2 1 1 1 1 1 1 2 3 2 2 2 3 4 4 5 5 4 4 4 4 3 2 3 3 3 3 3 3 4 4 4 4 4 4 3 3
2 2 1 1 1 1 1 1 1 2 1 1 2 2 3 3 3 2 2 4 4 3 3 4 3 3 3 3 3 2 2 3 3 3 3 3 3 3 4 4 4 4 3 3
1 1 1 1 1 2 2 1 1 1 1 1 2 2 2 3 3 3 4 4 4 4 3 3 3 4 4 3 2 2 2 3 3 3 3 3 3 3 4 4 4 3 3 3
2 1 1 1 1 2 2 1 1 1 1 2 2 3 3 3 3 3 4 3 2 4 3 3 4 5 5 2 2 2 2 3 3 3 3 3 3 4 4 4 4 3 3 3
1 1 1 1 0 0 1 2 2 2 2 2 3 3 3 2 3 2 3 4 4 5 3 4 6 6 4 2 2 2 2 3 3 3 3 3 3 3 3 3 3 3 3 4
1 1 1 0 1 1 2 2 2 2 2 2 2 2 2 2 3 3 3 3 5 4 3 4 6 5 3 2 2 3 3 3 3 3 3 3 3 3 3 3 3 3 3 3
1 1 1 1 1 1 1 1 2 2 2 2 2 2 2 2 2 2 2 3 3 4 3 3 3 3 3 3 3 3 3 3 3 3 3 3 4 4 3 4 4 3 3 4
1 1 1 1 1 1 1 1 2 2 2 2 3 3 2 2 2 2 3 3 3 3 3 3 3 3 3 3 3 3 3 3 3 3 3 3 3 3 4 4 4 3 3 3
Wind_Direction
252 258 234 238 239 221 216 219 223 245 249 258 257 248 244 234 211 202 196 191 192 195 193 187 180 174 171 218 287 317 313 294 294 318 332 339 334 328 327 328 317 298 274 253
264 255 244 257 248 231 230 230 238 255 261 263 269 245 226 221 206 208 211 208 206 201 198 197 194 193 196 232 251 243 232 262 289 315 333 331 326 332 336 333 324 317 291 264
258 286 323 260 234 216 217 218 213 234 249 270 260 236 221 215 214 218 218 214 208 208 208 207 204 196 204 217 224 212 228 265 287 296 308 314 326 332 326 320 315 304 291 278
231 88 238 246 200 199 216 231 220 231 253 248 239 240 232 214 210 221 216 213 213 210 207 201 187 181 180 175 187 205 234 266 285 295 306 315 320 314 312 309 300 290 291 285
188 231 267 282 242 195 208 246 225 227 244 255 256 328 277 242 215 217 214 211 206 199 190 175 173 169 155 168 192 230 260 272 276 280 286 290 290 292 294 296 298 295 293 290
190 210 239 250 235 209 162 259 240 212 228 233 176 233 258 255 251 253 230 193 180 165 152 162 170 159 163 194 211 244 263 274 273 268 264 267 268 275 282 279 279 289 300 298
213 229 254 256 239 126 182 244 225 197 214 211 213 225 246 255 249 240 210 171 150 153 171 180 164 162 191 213 231 243 257 274 278 275 267 266 272 271 267 269 281 286 287 294
195 219 247 212 149 185 219 241 208 209 214 215 229 242 248 239 235 204 173 154 153 165 197 192 169 172 208 234 245 243 246 255 267 275 273 271 268 275 270 252 254 268 277 288
199 218 232 165 193 220 213 226 237 227 227 215 229 239 243 235 221 202 191 185 177 179 205 226 200 192 220 249 239 235 253 257 264 273 276 267 255 258 266 255 243 255 259 267
232 248 242 230 240 243 231 231 243 240 228 208 227 239 237 235 223 209 208 196 185 183 214 241 238 239 241 242 212 216 239 253 257 258 267 269 264 255 249 247 246 246 247 254
245 261 272 245 230 235 240 238 245 245 219 214 222 235 230 231 225 219 234 222 201 208 228 243 244 249 251 236 202 222 241 247 252 252 253 257 259 251 252 251 242 244 244 243
231 218 215 235 224 214 213 227 227 225 240 234 211 226 227 231 225 216 225 227 226 232 241 252 251 256 254 233 210 211 234 243 245 248 249 252 260 277 269 264 269 266 263 259
238 238 230 242 225 212 217 231 228 217 217 226 223 207 210 222 233 226 237 230 233 240 246 252 256 261 257 233 219 217 228 238 242 243 243 244 249 256 275 285 277 276 271 267
242 236 238 225 222 226 230 235 214 204 209 200 199 177 184 210 232 238 242 245 247 249 252 251 254 262 258 234 224 228 233 236 235 237 239 241 243 249 254 260 276 282 281 271
280 250 229 224 196 203 205 163 173 244 251 244 175 176 190 214 238 254 262 263 257 256 256 253 256 265 258 233 228 231 232 236 237 240 241 242 245 248 251 252 259 270 285 280
283 287 228 197 215 228 208 205 221 251 256 246 228 230 227 232 253 270 273 244 234 258 262 259 261 265 254 236 235 236 233 238 238 237 241 242 243 243 245 247 253 256 257 261
220 244 247 246 245 248 246 236 230 243 250 249 250 248 232 239 276 283 282 269 255 264 267 264 270 272 256 239 232 234 234 235 232 235 238 239 242 242 244 243 247 252 253 249
233 237 236 232 236 244 256 259 239 240 246 244 235 208 220 236 255 276 291 302 299 291 280 271 269 265 252 242 234 233 230 231 230 235 242 244 247 247 246 243 245 250 258 256
273 259 257 252 242 227 239 253 251 242 247 227 213 228 240 250 256 269 284 294 293 293 296 293 298 300 275 264 257 233 230 234 241 245 243 248 252 250 248 243 243 246 248 246
317 314 297 293 302 225 246 268 262 253 253 209 211 241 269 274 271 273 275 268 261 265 282 292 295 288 279 272 274 247 237 236 240 246 248 247 250 254 252 249 245 245 243 240
302 318 329 321 321 313 275 262 247 259 275 234 221 244 263 277 277 267 267 280 285 285 289 291 289 287 285 280 264 249 242 243 245 248 250 252 254 256 256 253 249 244 241 241
297 299 302 317 336 326 319 308 264 253 269 266 259 260 269 279 279 271 250 252 280 295 296 288 286 287 293 288 264 256 253 252 256 257 256 256 253 255 257 254 250 248 244 242
288 280 277 285 282 297 322 319 281 251 252 256 258 256 256 263 267 266 281 274 288 296 298 287 293 298 299 291 270 260 259 259 261 262 262 261 258 256 258 256 253 251 249 247
294 291 290 303 343 347 312 304 297 281 267 270 265 257 253 271 282 256 263 290 297 299 298 293 298 304 310 299 283 273 268 265 265 265 266 266 265 264 263 263 263 259 253 251
273 284 290 309 272 273 284 306 313 307 302 296 291 282 261 244 254 279 289 293 298 304 300 301 306 313 313 292 280 275 270 266 265 265 264 266 266 266 266 264 262 263 260 257
261 258 262 266 264 270 282 295 300 304 307 308 308 303 300 291 278 283 288 292 294 297 300 305 305 301 295 288 282 279 277 277 276 272 271 271 272 270 270 270 269 265 263 261
333 333 339 335 319 287 273 278 288 297 293 287 294 299 304 305 304 303 300 300 302 301 301 300 299 295 292 290 288 286 284 282 279 277 276 273 272 272 274 273 272 268 265 264